Location: Rounton
(54.4000°N, 1.3500°W)
Time: 22:34:39
(UTC+00:00)

Explorer 7 - Pass Details

Date: 05 December 2021
Orbit: 483 x 674 km, 50.3° (Epoch: 17 January)

Event Time Altitude Azimuth Distance (km) Brightness Sun altitude
Rises 10:15:29 0° 275° (W) 2,679 10.0 10.2°
Reaches altitude 10° 10:18:01 10° 262° (W) 1,754 9.3 10.3°
Maximum altitude 10:21:17 25° 206° (SSW) 1,053 9.0 10.5°
Drops below altitude 10° 10:24:26 10° 150° (SSE) 1,686 12.0 10.7°
Sets 10:26:49 0° 137° (SE) 2,550 11.6 10.8°
